Regional Weather Roundup
Issued by NWS

Home | Current Version | Previous Version | Graphics & Text | Print | Product List | Glossary On
Versions: 1 2 3 4 5 6 7 8 9 10 11 12 13 14 15 16 17 18 19 20 21 22 23 24 25 26 27 28 29 30 31 32 33 34 35 36 37 38 39 40 41 42 43 44 45 46 47 48 49 50
000
ASUS43 KLSX 200659
RWRMO

WEATHER SUMMARY FOR MISSOURI
NATIONAL WEATHER SERVICE SPRINGFIELD MO
100 AM CST SAT DEC 20 2014

NOTE: "FAIR" INDICATES FEW OR NO CLOUDS BELOW 12,000 FEET WITH NO
       SIGNIFICANT WEATHER AND/OR OBSTRUCTIONS TO VISIBILITY.
       CURRENT SKY AND/OR WEATHER CONDITIONS ARE NOT AVAILABLE FOR
       CHILLICOTHE AND FARMINGTON.

MOZ001>031-035>038-043-044-053-054-200800-
...NORTHERN AND WESTERN MISSOURI...

CITY           SKY/WX    TMP DP  RH WIND       PRES   REMARKS
KANSAS CTY INT FRZ RAIN  32  31  96 S3        30.19F FOG
KANSAS C DTWN  CLOUDY    34  31  88 W5        30.21F WCI  30
LEE`S SUMMIT   CLOUDY    34  34 100 CALM      30.20F FOG
ST JOSEPH      CLOUDY    32  29  88 SW7       30.20F WCI  26
CHILLICOTHE      N/A     33  32  96 CALM      30.22F
KIRKSVILLE     CLOUDY    32  31  96 SE7       30.22F FOG     WCI  26

$$
MOZ066>068-077>081-088>096-101>105-200800-
...SOUTHWEST MISSOURI...

CITY           SKY/WX    TMP DP  RH WIND       PRES   REMARKS
SPRINGFIELD    CLOUDY    37  35  92 S8        30.18F
JOPLIN         CLOUDY    38  38 100 W5        30.21S FOG

$$
MOZ032>034-039>042-045>050-055>058-069>072-200800-
...CENTRAL MISSOURI...

CITY           SKY/WX    TMP DP  RH WIND       PRES   REMARKS
COLUMBIA       CLOUDY    35  33  92 SE5       30.22S FOG
JEFFERSON CITY CLOUDY    36  32  85 SE5       30.24F FOG
ROLLA          CLOUDY    34  32  92 SE5       30.19F WCI  30
SEDALIA        FOG       37  36  96 SE5       30.21F VSB 3/4
WARRENSBURG    CLOUDY    36  34  93 CALM      30.20F FOG
OSAGE BEACH    CLOUDY    37  34  87 S3        30.21F

$$
MOZ051-052-059>065-200800-
...EAST CENTRAL MISSOURI...

CITY           SKY/WX    TMP DP  RH WIND       PRES   REMARKS
ST LOUIS INTL  CLOUDY    36  26  67 SE6       30.27F
SPIRIT OF STL  CLOUDY    35  28  75 SE3       30.26F
ST CHARLES     CLOUDY    34  31  88 E5        30.27F WCI  30

$$
MOZ072>076-082>087-097>100-106>115-200800-
...SOUTH CENTRAL AND SOUTHEAST MISSOURI...

CITY           SKY/WX    TMP DP  RH WIND       PRES   REMARKS
CAPE GIRARDEAU CLOUDY    36  31  82 CALM      30.27F
FARMINGTON     CLOUDY    34  32  93 CALM      30.25F
POPLAR BLUFF   CLOUDY    36  32  85 NE5       30.24F
WEST PLAINS    LGT SNOW  34  31  88 SE3       30.22F FOG

$$


USA.gov is the U.S. government's official web portal to all federal, state and local government web resources and services.